Weather History for Olean, NY

Change the Weather History Date:

Sunday, February 16, 2014

  Actual Average (KBFD) Record (KBFD)
Temperature  
Mean Temperature 11 °F 24 °F  
Max Temperature 17 °F 33 °F 59 °F (1990)
Min Temperature 5 °F 15 °F -11 °F (1963)
Degree Days  
Heating Degree Days 54 36  
Month to date heating degree days 589  
Since 1 July heating degree days 5000  
Cooling Degree Days 0 0  
Month to date cooling degree days 0  
Year to date cooling degree days 0  
Moisture  
Dew Point 6 °F    
Average Humidity 84    
Maximum Humidity 92    
Minimum Humidity 73    
Precipitation  
Precipitation 0.00 in 0.08 in 0.71 in (1993)
Month to date precipitation 1.34  
Year to date precipitation 4.63  
Sea Level Pressure  
Sea Level Pressure 29.92 in    
Wind  
Wind Speed 5 mph (WNW)    
Max Wind Speed 9 mph    
Max Gust Speed 16 mph    
Visibility 4 miles    
Events Snow    
T = Trace of Precipitation, MM = Missing Value Source: NWS Daily Summary

Daily Weather History Graph

Daily Weather History Graph

Search for Another Location

Airport:

Trip Planner

Search our weather history database for the weather conditions in past years. The results will help you decide how hot, cold, wet, or windy it might be!

Date:

Astronomy

Feb. 16, 2014 Rise Set
Actual Time 7:08 AM EST 5:47 PM EST
Civil Twilight 6:39 AM EST 6:16 PM EST
Nautical Twilight 6:06 AM EST 6:48 PM EST
Astronomical Twilight 5:34 AM EST 7:21 PM EST
Moon 7:45 PM EST (2/16) 7:34 AM EST (2/16)
Length of Visible Light 11h 36m
Length of Day
10h 38m
Full, 97% of the Moon is Illuminated
Feb 16
Full
Feb 22
Last Quarter
Mar 1
New
Mar 8
First Quarter
Mar 16
Full

Hourly Weather History & Observations

Time (EST) Temp. Windchill Dew Point Humidity Pressure Visibility Wind Dir Wind Speed Gust Speed Precip Events Conditions
12:15 AM 8.6 °F -3.7 °F 3.2 °F 79% 29.85 in 2.5 mi WNW 8.1 mph 16.1 mph N/A Snow Light Snow
12:35 AM 8.6 °F - 3.2 °F 79% 29.85 in 3.0 mi Calm Calm - N/A Snow Light Snow
12:55 AM 8.6 °F 2.0 °F 3.2 °F 79% 29.85 in 2.5 mi West 3.5 mph - N/A Snow Light Snow
1:15 AM 8.6 °F 2.0 °F 3.2 °F 79% 29.86 in 2.5 mi West 3.5 mph - N/A Snow Light Snow
1:35 AM 8.6 °F -1.3 °F 3.2 °F 79% 29.85 in 4.0 mi West 5.8 mph - N/A Snow Light Snow
1:55 AM 6.8 °F -5.9 °F 3.2 °F 85% 29.85 in 4.0 mi West 8.1 mph - N/A Snow Light Snow
2:15 AM 6.8 °F -0.1 °F 3.2 °F 85% 29.85 in 3.0 mi West 3.5 mph - N/A Snow Light Snow
2:35 AM 6.8 °F -0.1 °F 3.2 °F 85% 29.85 in 2.0 mi WSW 3.5 mph - N/A Snow Light Snow
2:55 AM 5.0 °F -5.6 °F 3.2 °F 92% 29.85 in 4.0 mi West 5.8 mph - N/A Snow Light Snow
3:15 AM 5.0 °F -6.9 °F 3.2 °F 92% 29.85 in 4.0 mi West 6.9 mph - N/A Snow Light Snow
3:35 AM 5.0 °F -6.9 °F 3.2 °F 92% 29.84 in 2.5 mi West 6.9 mph - N/A Snow Light Snow
3:55 AM 5.0 °F -4.1 °F 3.2 °F 92% 29.84 in 1.5 mi West 4.6 mph - N/A Snow Light Snow
4:15 AM 5.0 °F -2.1 °F 3.2 °F 92% 29.84 in 1.5 mi West 3.5 mph - N/A Snow Light Snow
4:35 AM 5.0 °F -2.1 °F 3.2 °F 92% 29.85 in 1.0 mi West 3.5 mph - N/A Snow Light Snow
4:55 AM 5.0 °F -6.9 °F 3.2 °F 92% 29.85 in 4.0 mi West 6.9 mph - N/A Snow Light Snow
5:15 AM 5.0 °F -2.1 °F 3.2 °F 92% 29.85 in 2.5 mi West 3.5 mph - N/A Snow Light Snow
5:35 AM 5.0 °F -4.1 °F 3.2 °F 92% 29.86 in 2.0 mi West 4.6 mph - N/A Snow Light Snow
5:55 AM 5.0 °F -2.1 °F 1.4 °F 85% 29.85 in 3.0 mi West 3.5 mph - N/A Snow Light Snow
6:15 AM 5.0 °F -2.1 °F 3.2 °F 92% 29.86 in 3.0 mi WSW 3.5 mph - N/A Snow Light Snow
6:35 AM 5.0 °F -2.1 °F 3.2 °F 92% 29.85 in 5.0 mi West 3.5 mph - N/A Snow Light Snow
6:55 AM 5.0 °F -2.1 °F 3.2 °F 92% 29.85 in 4.0 mi West 3.5 mph - N/A Snow Light Snow
7:15 AM 5.0 °F -4.1 °F 3.2 °F 92% 29.86 in 4.0 mi WSW 4.6 mph - N/A Snow Light Snow
7:35 AM 5.0 °F -4.1 °F 3.2 °F 92% 29.87 in 7.0 mi WSW 4.6 mph - N/A Snow Light Snow
7:55 AM 5.0 °F - 3.2 °F 92% 29.88 in 10.0 mi Calm Calm - N/A Snow Light Snow
8:15 AM 6.8 °F - 3.2 °F 85% 29.88 in 10.0 mi Calm Calm - N/A Snow Light Snow
8:35 AM 8.6 °F 2.0 °F 5.0 °F 85% 29.87 in 10.0 mi WSW 3.5 mph - N/A   Overcast
8:55 AM 8.6 °F 0.1 °F 5.0 °F 85% 29.88 in 10.0 mi WSW 4.6 mph - N/A   Overcast
9:15 AM 8.6 °F 0.1 °F 5.0 °F 85% 29.88 in 3.0 mi WSW 4.6 mph - N/A Snow Light Snow
9:35 AM 10.4 °F 4.0 °F 5.0 °F 79% 29.88 in 1.5 mi West 3.5 mph - N/A Snow Light Snow
9:55 AM 10.4 °F - 5.0 °F 79% 29.89 in 1.0 mi Calm Calm - N/A Snow Light Snow
10:15 AM 10.4 °F 4.0 °F 6.8 °F 85% 29.89 in 0.8 mi West 3.5 mph - N/A Snow Light Snow
10:35 AM 10.4 °F 4.0 °F 6.8 °F 85% 29.89 in 1.2 mi West 3.5 mph - N/A Snow Light Snow
10:55 AM 12.2 °F 6.1 °F 6.8 °F 79% 29.89 in 1.2 mi West 3.5 mph - N/A Snow Light Snow
11:15 AM 12.2 °F - 8.6 °F 85% 29.89 in 1.0 mi Calm Calm - N/A Snow Light Snow
11:35 AM 12.2 °F - 8.6 °F 85% 29.88 in 1.0 mi Calm Calm - N/A Snow Light Snow
11:55 AM 12.2 °F - 8.6 °F 85% 29.87 in 1.0 mi Calm Calm - N/A Snow Light Snow
12:15 PM 12.2 °F 2.9 °F 8.6 °F 85% 29.87 in 1.2 mi NW 5.8 mph - N/A Snow Light Snow
12:35 PM 12.2 °F 6.1 °F 8.6 °F 85% 29.87 in 1.0 mi WNW 3.5 mph - N/A Snow Light Snow
12:55 PM 14.0 °F 6.5 °F 8.6 °F 79% 29.87 in 1.2 mi West 4.6 mph - N/A Snow Light Snow
1:15 PM 14.0 °F 6.5 °F 10.4 °F 86% 29.87 in 0.8 mi WNW 4.6 mph - N/A Snow Light Snow
1:35 PM 14.0 °F 6.5 °F 8.6 °F 79% 29.87 in 1.0 mi WNW 4.6 mph - N/A Snow Light Snow
1:55 PM 15.8 °F 7.2 °F 10.4 °F 79% 29.86 in 1.8 mi NW 5.8 mph - N/A Snow Light Snow
2:15 PM 15.8 °F - 8.6 °F 73% 29.86 in 1.8 mi Calm Calm - N/A Snow Light Snow
2:35 PM 15.8 °F 10.2 °F 8.6 °F 73% 29.86 in 4.0 mi WSW 3.5 mph - N/A Snow Light Snow
2:55 PM 15.8 °F 10.2 °F 10.4 °F 79% 29.86 in 4.0 mi WNW 3.5 mph - N/A Snow Light Snow
3:15 PM 17.6 °F - 10.4 °F 73% 29.87 in 2.5 mi Calm Calm - N/A Snow Light Snow
3:35 PM 15.8 °F 7.2 °F 10.4 °F 79% 29.87 in 4.0 mi NW 5.8 mph - N/A Snow Light Snow
3:55 PM 15.8 °F 8.6 °F 8.6 °F 73% 29.88 in 10.0 mi NW 4.6 mph - N/A   Overcast
4:15 PM 15.8 °F 6.1 °F 8.6 °F 73% 29.88 in 7.0 mi NW 6.9 mph - N/A   Overcast
4:35 PM 15.8 °F 7.2 °F 8.6 °F 73% 29.89 in 5.0 mi WNW 5.8 mph - N/A Snow Light Snow
4:55 PM 14.0 °F 5.1 °F 8.6 °F 79% 29.90 in 7.0 mi NW 5.8 mph - N/A   Overcast
5:15 PM 14.0 °F 5.1 °F 10.4 °F 86% 29.92 in 2.5 mi WNW 5.8 mph - N/A Snow Light Snow
5:35 PM 14.0 °F 2.9 °F 10.4 °F 86% 29.93 in 2.0 mi NW 8.1 mph - N/A Snow Light Snow
5:55 PM 14.0 °F 2.9 °F 8.6 °F 79% 29.95 in 5.0 mi NW 8.1 mph - N/A Snow Light Snow
6:15 PM 12.2 °F -0.2 °F 8.6 °F 85% 29.97 in 3.0 mi WNW 9.2 mph - N/A Snow Light Snow
6:35 PM 12.2 °F 6.1 °F 6.8 °F 79% 29.99 in 7.0 mi WNW 3.5 mph - N/A Snow Light Snow
6:55 PM 12.2 °F 1.7 °F 6.8 °F 79% 29.99 in 10.0 mi WNW 6.9 mph - N/A Snow Light Snow
7:15 PM 10.4 °F 4.0 °F 6.8 °F 85% 30.01 in 10.0 mi NW 3.5 mph - N/A   Overcast
7:35 PM 10.4 °F -2.4 °F 6.8 °F 85% 30.02 in 5.0 mi NW 9.2 mph - N/A Snow Light Snow
7:55 PM 10.4 °F -0.4 °F 6.8 °F 85% 30.02 in 5.0 mi NW 6.9 mph 16.1 mph N/A Snow Light Snow
8:15 PM 10.4 °F 0.8 °F 6.8 °F 85% 30.04 in 5.0 mi NW 5.8 mph - N/A Snow Light Snow
8:35 PM 8.6 °F -1.3 °F 5.0 °F 85% 30.04 in 5.0 mi WNW 5.8 mph - N/A Snow Light Snow
8:55 PM 8.6 °F -3.7 °F 5.0 °F 85% 30.05 in 4.0 mi WNW 8.1 mph - N/A Snow Light Snow
9:15 PM 8.6 °F -1.3 °F 6.8 °F 92% 30.06 in 1.2 mi WNW 5.8 mph - N/A Snow Light Snow
9:35 PM 8.6 °F -1.3 °F 5.0 °F 85% 30.07 in 2.5 mi WNW 5.8 mph - N/A Snow Light Snow
9:55 PM 8.6 °F -1.3 °F 5.0 °F 85% 30.08 in 7.0 mi WNW 5.8 mph - N/A Snow Light Snow
10:15 PM 8.6 °F -1.3 °F 5.0 °F 85% 30.08 in 2.0 mi WNW 5.8 mph - N/A Snow Light Snow
10:35 PM 8.6 °F 0.1 °F 5.0 °F 85% 30.10 in 2.0 mi WNW 4.6 mph - N/A Snow Light Snow
10:55 PM 8.6 °F 0.1 °F 5.0 °F 85% 30.10 in 1.2 mi WNW 4.6 mph - N/A Snow Light Snow
11:15 PM 8.6 °F -2.6 °F 5.0 °F 85% 30.11 in 2.0 mi WNW 6.9 mph - N/A Snow Light Snow
11:35 PM 8.6 °F -1.3 °F 5.0 °F 85% 30.11 in 5.0 mi NW 5.8 mph - N/A Snow Light Snow
11:55 PM 8.6 °F 0.1 °F 5.0 °F 85% 30.12 in 5.0 mi NW 4.6 mph - N/A Snow Light Snow